[[{"header":{"parameterUnit":"m.s-1","parameterCategory":2,"la1":30.2991,"la2":30.254,"lo1":-89.0895,"lo2":-89.0444,"dy":0.0017,"dx":0.0017,"nx":28,"ny":28,"refTime":"2025-08-18T09:00:00:Z","depth":"0","parameterNumber":2,"parameterNumberName":"U-component_of_CURRENTS"},"data":[0,0,0,0,0,0,0,0,0,0,0,0,0,0,0,0,0,0,0,0,0,0,0,0,0,0,0,0,0,0,0,0,0,0,0,0,0,0,0,0,0,0,0,0,0,0,0,0,0,0,0,0,0,0,0,0,0,0,-0.2342,-0.2342,0,-0.2331,-0.233,-0.2329,-0.2286,-0.2286,-0.2286,-0.2285,-0.2161,-0.2158,-0.2155,0,0,0,0,0,0,0,0,0,0,0,0,0,-0.223,-0.2233,-0.2342,-0.2342,-0.2343,-0.2331,-0.233,-0.2329,-0.2286,-0.2286,-0.2286,-0.2285,-0.2162,-0.2158,-0.2154,0,0,0,0,0,0,0,0,0,0,0,0,0,-0.2248,-0.2233,-0.2342,-0.2326,-0.2325,-0.2331,-0.233,-0.2329,-0.2286,-0.2286,-0.2285,-0.2285,-0.2163,-0.2159,-0.2154,-0.2134,0,0,-0.214,-0.2138,0,0,0,0,0,0,0,0,-0.2247,-0.2251,-0.2328,-0.2327,-0.2326,-0.2316,-0.2246,-0.2261,-0.2286,-0.2293,-0.2285,-0.2285,-0.2208,-0.2199,-0.2189,-0.2128,-0.2123,-0.214,-0.2137,-0.2135,-0.2133,0,0,0,0,0,0,0,-0.2246,-0.2251,-0.2329,-0.2328,-0.2328,-0.2287,-0.2289,-0.2248,-0.2244,-0.2292,-0.2291,-0.2302,-0.2205,-0.2193,-0.2185,-0.2121,-0.214,-0.2136,-0.2133,-0.2131,-0.1995,-0.1994,0,0,0,0,0,0,-0.2269,-0.2251,-0.233,-0.233,-0.2294,-0.2291,-0.2292,-0.2313,-0.2247,-0.224,-0.2303,-0.2301,-0.2201,-0.2191,-0.2181,-0.2149,-0.2135,-0.213,-0.2128,-0.1996,-0.1995,-0.1994,0,0,0,0,0,0,-0.2267,-0.2277,-0.233,-0.2295,-0.23,-0.2295,-0.2317,-0.2314,-0.2309,-0.2258,-0.2247,-0.2304,-0.2201,-0.2187,-0.2141,-0.2144,-0.2128,-0.2124,-0.1997,-0.1995,-0.1994,-0.2088,0,0,0,0,0,0,-0.2264,-0.2276,-0.2288,-0.2297,-0.2303,-0.2338,-0.2319,-0.2314,-0.232,-0.2317,-0.2255,-0.2243,-0.2199,-0.2148,-0.2137,-0.2137,-0.2121,-0.1998,-0.1996,-0.1995,-0.2086,-0.209,-0.2094,0,0,0,0,0,-0.226,-0.2286,-0.2289,-0.2298,-0.2325,-0.2339,-0.2337,-0.2325,-0.2321,-0.2318,-0.2274,-0.2245,-0.2129,-0.2144,-0.2131,-0.213,-0.1999,-0.1997,-0.1995,-0.2084,-0.2089,-0.2093,0,0,0,0,0,0,-0.2235,-0.2285,-0.2288,-0.2326,-0.2334,-0.2335,-0.234,-0.2335,-0.23,-0.2297,-0.224,-0.2224,-0.2179,-0.2138,-0.2157,-0.2081,-0.2056,-0.2052,-0.2129,-0.2133,-0.2137,-0.2152,-0.2117,0,0,0,0,0,-0.2242,-0.2276,-0.2304,-0.2328,-0.2343,-0.2342,-0.2346,-0.2344,-0.2325,-0.2311,-0.2263,-0.2209,-0.216,-0.2137,-0.208,-0.205,-0.207,-0.2035,-0.2039,-0.2043,-0.2043,-0.2073,-0.2082,-0.1987,-0.1987,-0.1987,0,0,-0.2232,-0.227,-0.2282,-0.2325,-0.2333,-0.2346,-0.2341,-0.236,-0.2354,-0.2301,-0.2263,-0.2218,-0.2151,-0.211,-0.2086,-0.208,-0.209,-0.2041,-0.2045,-0.2042,-0.2073,-0.2082,-0.2091,-0.1986,-0.1986,-0.1987,0,0,-0.2241,-0.2274,-0.2306,-0.2319,-0.2353,-0.2355,-0.2367,-0.2371,-0.2357,-0.2327,-0.2282,-0.2249,-0.2166,-0.2131,-0.2101,-0.2092,-0.2104,-0.2064,-0.2107,-0.2137,-0.2147,-0.2155,-0.2253,-0.2269,-0.2074,-0.2074,-0.2074,0,-0.2224,-0.2276,-0.231,-0.2339,-0.235,-0.2364,-0.238,-0.2371,-0.2348,-0.2344,-0.232,-0.2231,-0.2177,-0.2149,-0.2136,-0.2105,-0.2145,-0.2105,-0.2149,-0.2157,-0.2164,-0.2261,-0.2278,-0.2079,-0.2078,-0.2078,-0.2077,0,-0.2257,-0.2287,-0.2308,-0.235,-0.2362,-0.2381,-0.2389,-0.2386,-0.2375,-0.2366,-0.2335,-0.2274,-0.2228,-0.2204,-0.2162,-0.2176,-0.2201,-0.2153,-0.2154,-0.218,-0.228,-0.2297,-0.2085,-0.2083,-0.2082,-0.2081,0,0,-0.2234,-0.2316,-0.2317,-0.2333,-0.2372,-0.2381,-0.239,-0.2403,-0.2417,-0.2384,-0.2399,-0.2314,-0.2305,-0.2268,-0.2228,-0.2246,-0.2344,-0.2224,-0.2223,-0.2352,-0.2475,-0.229,-0.229,-0.2312,-0.2313,-0.2315,-0.2551,0,-0.224,-0.2299,-0.2337,-0.2354,-0.2377,-0.2396,-0.2401,-0.2412,-0.2417,-0.2431,-0.2407,-0.2388,-0.2324,-0.2315,-0.2326,-0.2323,-0.2379,-0.2288,-0.2401,-0.2406,-0.2261,-0.2297,-0.2102,-0.2274,-0.2566,-0.2569,-0.2571,0,-0.2251,-0.229,-0.2327,-0.2367,-0.238,-0.2385,-0.2415,-0.2422,-0.2459,-0.2466,-0.2475,-0.2466,-0.2482,-0.2421,-0.2483,-0.2433,-0.2462,-0.2474,-0.2482,-0.2277,-0.2245,-0.2277,-0.2291,-0.2268,-0.2595,-0.2593,-0.2591,0,-0.2212,-0.2272,-0.2303,-0.2313,-0.2364,-0.2373,-0.239,-0.2426,-0.2454,-0.2497,-0.2538,-0.2554,-0.2573,-0.2598,-0.2602,-0.2562,-0.2695,-0.2647,-0.2534,-0.2527,-0.2359,-0.2329,-0.2374,-0.2715,-0.2715,-0.2714,-0.2713,0,-0.22,-0.2212,-0.2284,-0.2288,-0.2313,-0.235,-0.2386,-0.2405,-0.2475,-0.2514,-0.2548,-0.2584,-0.261,-0.2676,-0.2678,-0.2651,-0.2766,-0.2553,-0.2553,-0.2386,-0.2357,-0.232,-0.2346,-0.2723,-0.2721,-0.2719,-0.2718,0,-0.2142,-0.2199,-0.2221,-0.2276,-0.2295,-0.2301,-0.2381,-0.2416,-0.2478,-0.2542,-0.2564,-0.2648,-0.2682,-0.273,-0.2795,-0.2728,-0.2672,-0.2711,-0.2536,-0.2503,-0.2262,-0.2299,-0.2356,-0.2294,-0.2615,-0.2611,-0.2608,0,-0.2119,-0.2129,-0.2193,-0.2214,-0.2235,-0.2274,-0.2313,-0.2392,-0.2436,-0.2555,-0.2582,-0.2659,-0.2635,-0.2686,-0.2582,-0.2576,-0.2599,-0.2425,-0.2247,-0.2221,-0.2268,-0.2309,-0.2258,-0.2139,-0.2132,-0.2127,-0.2122,0,-0.2044,-0.207,-0.209,-0.2146,-0.2183,-0.2235,-0.2289,-0.2325,-0.2417,-0.2447,-0.2468,-0.2462,-0.2466,-0.2306,-0.2288,-0.2257,-0.2298,-0.2303,-0.2325,-0.1917,-0.1923,-0.187,-0.2089,-0.2074,-0.2079,-0.2082,-0.2085,-0.2087,-0.1966,-0.1965,-0.2004,-0.2043,-0.2103,-0.2136,-0.21,-0.2165,-0.2168,-0.2131,-0.225,-0.2148,-0.209,-0.1947,-0.1935,-0.1794,-0.1913,-0.1722,-0.1798,-0.1867,-0.1676,-0.1783,-0.1695,-0.1697,-0.1699,-0.1701,-0.1703,0,-0.1843,-0.1862,-0.1902,-0.1931,-0.1948,-0.2014,-0.2035,-0.1953,-0.185,-0.1869,-0.1792,-0.1691,-0.154,-0.1547,-0.1409,-0.1333,-0.1335,-0.1355,-0.1406,-0.1395,-0.1528,-0.1362,-0.1131,-0.1131,-0.1132,-0.1132,-0.1132,-0.1132,-0.1776,-0.1753,-0.1779,-0.1751,-0.1773,-0.1669,-0.1619,-0.1519,-0.1467,-0.1304,-0.124,-0.1257,-0.1302,-0.1346,-0.1235,-0.1171,-0.121,-0.1139,-0.1264,-0.1377,-0.1418,-0.1458,-0.1306,-0.1068,-0.1068,-0.1022,-0.1022,-0.1022]},{"header":{"parameterUnit":"m.s-1","parameterCategory":2,"la1":30.2991,"la2":30.254,"lo1":-89.0895,"lo2":-89.0444,"dy":0.0017,"dx":0.0017,"nx":28,"ny":28,"refTime":"2025-08-18T09:00:00:Z","depth":"0","parameterNumber":3,"parameterNumberName":"V-component_of_CURRENTS"},"data":[0,0,0,0,0,0,0,0,0,0,0,0,0,0,0,0,0,0,0,0,0,0,0,0,0,0,0,0,0,0,0,0,0,0,0,0,0,0,0,0,0,0,0,0,0,0,0,0,0,0,0,0,0,0,0,0,0,0,-0.0486,-0.0484,0,-0.0347,-0.0346,-0.0345,-0.0288,-0.0288,-0.0288,-0.0288,-0.0189,-0.0186,-0.0184,0,0,0,0,0,0,0,0,0,0,0,0,0,-0.054,-0.0541,-0.0486,-0.0484,-0.0482,-0.0347,-0.0346,-0.0344,-0.0288,-0.0288,-0.0288,-0.0288,-0.0189,-0.0186,-0.0183,0,0,0,0,0,0,0,0,0,0,0,0,0,-0.0475,-0.0541,-0.0486,-0.0434,-0.0428,-0.0348,-0.0346,-0.0344,-0.0288,-0.0288,-0.0288,-0.0288,-0.0191,-0.0187,-0.0183,-0.0161,0,0,-0.0171,-0.0169,0,0,0,0,0,0,0,0,-0.0479,-0.0473,-0.0444,-0.0438,-0.043,-0.0331,-0.0328,-0.0283,-0.0288,-0.0345,-0.0288,-0.0288,-0.0237,-0.023,-0.0209,-0.0156,-0.0152,-0.0171,-0.0168,-0.0167,-0.0166,0,0,0,0,0,0,0,-0.0483,-0.0478,-0.0435,-0.0442,-0.0433,-0.0362,-0.0355,-0.0319,-0.0297,-0.034,-0.0335,-0.0313,-0.0235,-0.0213,-0.0206,-0.015,-0.0171,-0.0167,-0.0165,-0.0163,-0.0098,-0.0099,0,0,0,0,0,0,-0.0501,-0.0483,-0.0439,-0.043,-0.045,-0.0362,-0.0354,-0.0366,-0.0297,-0.0284,-0.0313,-0.0311,-0.0219,-0.0211,-0.0203,-0.0193,-0.0167,-0.0163,-0.0161,-0.0098,-0.0098,-0.0099,0,0,0,0,0,0,-0.0504,-0.05,-0.0445,-0.0448,-0.0435,-0.0362,-0.0376,-0.0364,-0.0338,-0.0275,-0.0265,-0.03,-0.0219,-0.0208,-0.0169,-0.0189,-0.0161,-0.0158,-0.0097,-0.0098,-0.0099,-0.0162,0,0,0,0,0,0,-0.0507,-0.0503,-0.0527,-0.0451,-0.0436,-0.0398,-0.0375,-0.0361,-0.0323,-0.0319,-0.026,-0.025,-0.0218,-0.0175,-0.0165,-0.0183,-0.0155,-0.0096,-0.0097,-0.0098,-0.0159,-0.0165,-0.017,0,0,0,0,0,-0.051,-0.0535,-0.053,-0.0523,-0.047,-0.0397,-0.0384,-0.0332,-0.0323,-0.031,-0.0273,-0.0252,-0.0176,-0.0172,-0.016,-0.0177,-0.0096,-0.0097,-0.0098,-0.0156,-0.0164,-0.0169,0,0,0,0,0,0,-0.0571,-0.0529,-0.0522,-0.0536,-0.0473,-0.0386,-0.037,-0.0334,-0.0294,-0.0294,-0.0246,-0.0233,-0.0211,-0.0183,-0.0179,-0.0163,-0.0138,-0.0137,-0.0186,-0.0192,-0.0198,-0.0225,-0.0152,0,0,0,0,0,-0.0598,-0.0611,-0.0541,-0.0553,-0.0525,-0.0451,-0.0419,-0.0378,-0.0324,-0.0305,-0.0263,-0.023,-0.0208,-0.019,-0.0159,-0.014,-0.0118,-0.0148,-0.0154,-0.0158,-0.0174,-0.017,-0.0177,-0.0103,-0.0103,-0.0103,0,0,-0.0625,-0.0603,-0.0612,-0.0566,-0.0519,-0.0482,-0.0433,-0.0381,-0.0364,-0.0302,-0.0278,-0.0242,-0.0206,-0.019,-0.0179,-0.0167,-0.016,-0.016,-0.0165,-0.0178,-0.0172,-0.0179,-0.0186,-0.0104,-0.0104,-0.0104,0,0,-0.0653,-0.0665,-0.0666,-0.0619,-0.0546,-0.0506,-0.0493,-0.0407,-0.0387,-0.0344,-0.0314,-0.0288,-0.0233,-0.0221,-0.0209,-0.0224,-0.0188,-0.0217,-0.0265,-0.0261,-0.0267,-0.0273,-0.0222,-0.0223,-0.0221,-0.0221,-0.0221,0,-0.0688,-0.0687,-0.065,-0.062,-0.0595,-0.0523,-0.0502,-0.0467,-0.0383,-0.0383,-0.0346,-0.0295,-0.0255,-0.0263,-0.0267,-0.0239,-0.0215,-0.0243,-0.0269,-0.0274,-0.0279,-0.0226,-0.0226,-0.0224,-0.0224,-0.0224,-0.0223,0,-0.0696,-0.0692,-0.0682,-0.0646,-0.0617,-0.0583,-0.0528,-0.0508,-0.0477,-0.0443,-0.0428,-0.0368,-0.0344,-0.0329,-0.0297,-0.0319,-0.0282,-0.0276,-0.0256,-0.029,-0.0231,-0.023,-0.0229,-0.0228,-0.0227,-0.0226,0,0,-0.0784,-0.0707,-0.0708,-0.0692,-0.0631,-0.0606,-0.0601,-0.0577,-0.0591,-0.052,-0.0535,-0.0484,-0.0454,-0.0438,-0.0399,-0.0389,-0.0377,-0.035,-0.0348,-0.0304,-0.0337,-0.0204,-0.0188,-0.0381,-0.0381,-0.0382,-0.0271,0,-0.0802,-0.0766,-0.0732,-0.0717,-0.0693,-0.0655,-0.0663,-0.0641,-0.062,-0.0615,-0.0572,-0.0559,-0.0497,-0.0486,-0.0469,-0.0406,-0.0382,-0.0406,-0.0307,-0.0303,-0.0186,-0.0186,-0.0136,-0.0026,-0.027,-0.027,-0.0269,0,-0.0824,-0.0796,-0.0776,-0.0756,-0.0749,-0.0742,-0.0765,-0.0754,-0.0746,-0.0729,-0.0712,-0.0671,-0.0639,-0.0585,-0.0497,-0.0515,-0.0436,-0.0378,-0.0373,-0.0232,-0.0168,-0.0037,-0.0013,0.0135,-0.0267,-0.0267,-0.0267,0,-0.0888,-0.0843,-0.0838,-0.082,-0.0778,-0.0793,-0.0792,-0.0793,-0.081,-0.0801,-0.0811,-0.0763,-0.0736,-0.0651,-0.0498,-0.0512,-0.0383,-0.0389,-0.0191,-0.0179,-0.0108,-0.0088,0.0062,-0.034,-0.034,-0.034,-0.0341,0,-0.092,-0.0916,-0.0864,-0.0849,-0.0881,-0.0842,-0.0888,-0.0882,-0.0892,-0.0925,-0.087,-0.088,-0.0759,-0.0661,-0.0528,-0.0324,-0.0399,-0.0193,-0.0149,-0.0121,-0.0104,0.0051,0.0097,-0.0336,-0.0337,-0.0338,-0.0339,0,-0.0967,-0.0929,-0.0917,-0.089,-0.0894,-0.0916,-0.0939,-0.0973,-0.097,-0.1011,-0.1012,-0.0968,-0.0824,-0.0649,-0.0487,-0.035,-0.0061,-0.0087,-0.0026,0.0024,0.034,0.0379,0.0576,0.0674,0.0127,0.0131,0.0134,0,-0.098,-0.0969,-0.0953,-0.0968,-0.0952,-0.0978,-0.1008,-0.1011,-0.1046,-0.1062,-0.1088,-0.0976,-0.0872,-0.054,-0.0273,0.0023,0.0109,0.0227,0.0204,0.0381,0.0454,0.0479,0.0546,0.0282,0.0287,0.029,0.0293,0,-0.0998,-0.0991,-0.0983,-0.1011,-0.1038,-0.1077,-0.1111,-0.1151,-0.1162,-0.1162,-0.1134,-0.1047,-0.073,-0.0384,0.0014,0.0179,0.0358,0.0309,0.0446,0.0561,0.0637,0.0746,0.0219,0.0323,0.032,0.0318,0.0316,0.0315,-0.1016,-0.1028,-0.1021,-0.1057,-0.1097,-0.1154,-0.1174,-0.1207,-0.1222,-0.1187,-0.1128,-0.0918,-0.0469,0.0101,0.0288,0.0704,0.0634,0.0804,0.0831,0.0837,0.0948,0.0533,0.0716,0.0715,0.0715,0.0714,0.0714,0,-0.1025,-0.1037,-0.1072,-0.1106,-0.1157,-0.1165,-0.1225,-0.1219,-0.1206,-0.111,-0.0995,-0.0461,0.0009,0.0423,0.0987,0.1201,0.1207,0.1291,0.1296,0.1334,0.0928,0.0953,0.1252,0.1252,0.1252,0.1251,0.1251,0.1251,-0.1025,-0.105,-0.1069,-0.1139,-0.1166,-0.1185,-0.1201,-0.1185,-0.1103,-0.0835,-0.0528,-0.0294,0.029,0.1089,0.1575,0.1617,0.1757,0.1758,0.1837,0.1514,0.1468,0.1425,0.1461,0.1861,0.1862,0.2227,0.2231,0.2233]}],[{"header":{"parameterUnit":"m.s-1","parameterCategory":2,"la1":30.2991,"la2":30.254,"lo1":-89.0895,"lo2":-89.0444,"dy":0.0017,"dx":0.0017,"nx":28,"ny":28,"refTime":"2025-08-18T09:00:00:Z","depth":"2","parameterNumber":2,"parameterNumberName":"U-component_of_CURRENTS"},"data":[0,0,0,0,0,0,0,0,0,0,0,0,0,0,0,0,0,0,0,0,0,0,0,0,0,0,0,0,0,0,0,0,0,0,0,0,0,0,0,0,0,0,0,0,0,0,0,0,0,0,0,0,0,0,0,0,0,0,-0.1862,-0.1864,0,-0.1996,-0.1997,-0.1998,-0.2039,-0.2039,-0.2039,-0.2039,-0.2144,-0.2147,-0.215,0,0,0,0,0,0,0,0,0,0,0,0,0,-0.1692,-0.1694,-0.1862,-0.1864,-0.1867,-0.1996,-0.1997,-0.1998,-0.2039,-0.2039,-0.2039,-0.2039,-0.2143,-0.2147,-0.215,0,0,0,0,0,0,0,0,0,0,0,0,0,-0.1782,-0.1695,-0.1862,-0.1909,-0.1915,-0.1996,-0.1997,-0.1998,-0.2039,-0.2039,-0.2039,-0.204,-0.2142,-0.2146,-0.215,-0.2172,0,0,-0.2163,-0.2164,0,0,0,0,0,0,0,0,-0.1777,-0.1787,-0.19,-0.1906,-0.1913,-0.2008,-0.1976,-0.2058,-0.2039,-0.1983,-0.2039,-0.204,-0.2101,-0.2109,-0.2122,-0.2177,-0.2182,-0.2163,-0.2165,-0.2167,-0.2168,0,0,0,0,0,0,0,-0.177,-0.1782,-0.1907,-0.1902,-0.1911,-0.1942,-0.1953,-0.1991,-0.2033,-0.1988,-0.1994,-0.2021,-0.2104,-0.2118,-0.2125,-0.2183,-0.2163,-0.2166,-0.2169,-0.217,-0.2328,-0.233,0,0,0,0,0,0,-0.1768,-0.1776,-0.1903,-0.1912,-0.1853,-0.1945,-0.1957,-0.1971,-0.2033,-0.2046,-0.2021,-0.2023,-0.2111,-0.212,-0.2129,-0.2214,-0.2167,-0.2171,-0.2173,-0.2327,-0.2329,-0.2331,0,0,0,0,0,0,-0.1763,-0.1777,-0.1897,-0.1854,-0.1873,-0.1948,-0.1963,-0.1974,-0.2035,-0.206,-0.207,-0.2078,-0.2112,-0.2123,-0.2209,-0.2216,-0.2173,-0.2176,-0.2325,-0.2327,-0.233,-0.2348,0,0,0,0,0,0,-0.1758,-0.1774,-0.1789,-0.1853,-0.1875,-0.1987,-0.1964,-0.1976,-0.2053,-0.2058,-0.2112,-0.2119,-0.2113,-0.2203,-0.2213,-0.2221,-0.218,-0.2322,-0.2326,-0.2329,-0.2346,-0.2351,-0.2356,0,0,0,0,0,-0.1751,-0.1808,-0.1789,-0.1805,-0.1891,-0.1991,-0.2006,-0.2053,-0.2056,-0.2104,-0.2136,-0.2119,-0.223,-0.221,-0.222,-0.2229,-0.2321,-0.2325,-0.2329,-0.2343,-0.235,-0.2356,0,0,0,0,0,0,-0.1741,-0.1819,-0.18,-0.1872,-0.1932,-0.2002,-0.2065,-0.2084,-0.2146,-0.2158,-0.2162,-0.2173,-0.2239,-0.225,-0.2227,-0.2286,-0.2265,-0.2271,-0.2272,-0.2279,-0.2284,-0.2245,-0.2183,0,0,0,0,0,-0.1739,-0.1812,-0.186,-0.1924,-0.1955,-0.2006,-0.2055,-0.2088,-0.2151,-0.218,-0.2209,-0.2237,-0.2256,-0.2285,-0.2311,-0.2366,-0.2337,-0.2374,-0.238,-0.2384,-0.2362,-0.2343,-0.2343,-0.2344,-0.2344,-0.2344,0,0,-0.1742,-0.1811,-0.1838,-0.1929,-0.1976,-0.2019,-0.2038,-0.214,-0.2165,-0.2181,-0.2244,-0.2269,-0.2279,-0.2322,-0.2351,-0.2339,-0.2373,-0.2389,-0.2392,-0.2367,-0.2347,-0.2346,-0.2345,-0.2346,-0.2346,-0.2346,0,0,-0.1822,-0.1852,-0.193,-0.1971,-0.2068,-0.2091,-0.2128,-0.2206,-0.2233,-0.2309,-0.2296,-0.2335,-0.2402,-0.2381,-0.2381,-0.2441,-0.2402,-0.2458,-0.2453,-0.2436,-0.2434,-0.2433,-0.24,-0.2395,-0.2459,-0.2459,-0.2459,0,-0.1811,-0.1906,-0.1969,-0.2039,-0.2086,-0.212,-0.2184,-0.22,-0.2293,-0.2305,-0.2342,-0.2387,-0.2412,-0.2399,-0.2417,-0.2446,-0.243,-0.2423,-0.2438,-0.2436,-0.2434,-0.2401,-0.2395,-0.2461,-0.246,-0.246,-0.246,0,-0.1939,-0.198,-0.2042,-0.2113,-0.2176,-0.2253,-0.2274,-0.2318,-0.236,-0.2353,-0.2395,-0.2427,-0.2442,-0.2456,-0.246,-0.2445,-0.2436,-0.2445,-0.241,-0.2434,-0.2399,-0.2393,-0.2463,-0.2462,-0.2462,-0.2461,0,0,-0.1973,-0.2097,-0.2106,-0.2122,-0.2224,-0.2274,-0.2325,-0.236,-0.2339,-0.2408,-0.2415,-0.2443,-0.2437,-0.2437,-0.2437,-0.2425,-0.241,-0.2434,-0.2433,-0.238,-0.2362,-0.2294,-0.2281,-0.2425,-0.2424,-0.2423,-0.2344,0,-0.2035,-0.2154,-0.2222,-0.2279,-0.2323,-0.2359,-0.2375,-0.2399,-0.2417,-0.2412,-0.2419,-0.2415,-0.2427,-0.2441,-0.2431,-0.2423,-0.2394,-0.2429,-0.2364,-0.2361,-0.2281,-0.2271,-0.2102,-0.2012,-0.2338,-0.2336,-0.2336,0,-0.2116,-0.2194,-0.2283,-0.2324,-0.2345,-0.2372,-0.2405,-0.2431,-0.2404,-0.2412,-0.241,-0.2396,-0.2387,-0.2409,-0.2367,-0.2394,-0.2371,-0.2357,-0.2354,-0.2271,-0.2281,-0.2043,-0.1987,-0.2324,-0.2325,-0.2326,-0.2327,0,-0.211,-0.2209,-0.2284,-0.2303,-0.2363,-0.2402,-0.2439,-0.2434,-0.2425,-0.2409,-0.2382,-0.2369,-0.2367,-0.2353,-0.2322,-0.2356,-0.2265,-0.2311,-0.2209,-0.2205,-0.2033,-0.2014,-0.2252,-0.2252,-0.2252,-0.2252,-0.2252,0,-0.2139,-0.217,-0.2268,-0.2288,-0.2329,-0.2399,-0.241,-0.2415,-0.2413,-0.2345,-0.2367,-0.2308,-0.2353,-0.2305,-0.2301,-0.2216,-0.2242,-0.2182,-0.2172,-0.2038,-0.2022,-0.2274,-0.2278,-0.2249,-0.225,-0.225,-0.2251,0,-0.209,-0.2162,-0.2215,-0.2298,-0.2322,-0.2355,-0.2406,-0.2363,-0.2373,-0.2308,-0.2304,-0.2272,-0.2218,-0.2209,-0.2181,-0.2159,-0.2109,-0.2061,-0.1893,-0.1864,-0.2073,-0.2079,-0.1971,-0.1968,-0.1965,-0.1963,-0.1961,0,-0.2068,-0.2102,-0.2198,-0.2215,-0.2253,-0.231,-0.2303,-0.2349,-0.2274,-0.2245,-0.2161,-0.2144,-0.2057,-0.1993,-0.1956,-0.1906,-0.1992,-0.1723,-0.1759,-0.2038,-0.204,-0.2051,-0.206,-0.1542,-0.1537,-0.1532,-0.1529,0,-0.2005,-0.2045,-0.2078,-0.213,-0.2149,-0.2151,-0.2139,-0.2085,-0.208,-0.2046,-0.1964,-0.1946,-0.1864,-0.1747,-0.1681,-0.164,-0.1737,-0.1637,-0.1937,-0.1652,-0.1631,-0.1634,-0.1658,-0.1491,-0.1495,-0.1498,-0.15,-0.1501,-0.1922,-0.1929,-0.1972,-0.2005,-0.2017,-0.1947,-0.1887,-0.1848,-0.179,-0.168,-0.1746,-0.1669,-0.1648,-0.1486,-0.1396,-0.1343,-0.149,-0.1443,-0.1457,-0.1476,-0.1453,-0.1429,-0.1246,-0.1249,-0.1251,-0.1252,-0.1254,0,-0.1798,-0.1816,-0.1836,-0.1839,-0.1774,-0.1839,-0.1713,-0.1618,-0.1515,-0.1484,-0.1459,-0.1313,-0.1208,-0.1195,-0.1045,-0.1027,-0.1029,-0.0996,-0.0996,-0.1033,-0.1066,-0.1025,-0.0703,-0.0702,-0.07,-0.0699,0,0,-0.1729,-0.1695,-0.1717,-0.1597,-0.1585,-0.1429,-0.1334,-0.1258,-0.1179,-0.1113,-0.1083,-0.1155,-0.1156,-0.0939,-0.0879,-0.0762,-0.0894,-0.0722,-0.1159,-0.1194,-0.1226,-0.1313,-0.129,0,0,0,0,0]},{"header":{"parameterUnit":"m.s-1","parameterCategory":2,"la1":30.2991,"la2":30.254,"lo1":-89.0895,"lo2":-89.0444,"dy":0.0017,"dx":0.0017,"nx":28,"ny":28,"refTime":"2025-08-18T09:00:00:Z","depth":"2","parameterNumber":3,"parameterNumberName":"V-component_of_CURRENTS"},"data":[0,0,0,0,0,0,0,0,0,0,0,0,0,0,0,0,0,0,0,0,0,0,0,0,0,0,0,0,0,0,0,0,0,0,0,0,0,0,0,0,0,0,0,0,0,0,0,0,0,0,0,0,0,0,0,0,0,0,-0.0012,-0.0011,0,0.0083,0.0084,0.0086,0.0165,0.0165,0.0166,0.0166,0.043,0.0436,0.0443,0,0,0,0,0,0,0,0,0,0,0,0,0,-0.0068,-0.0067,-0.0012,-0.0011,-0.001,0.0083,0.0084,0.0086,0.0165,0.0165,0.0166,0.0166,0.0428,0.0436,0.0444,0,0,0,0,0,0,0,0,0,0,0,0,0,-0.0011,-0.0067,-0.0012,0.0036,0.0041,0.0082,0.0084,0.0087,0.0165,0.0165,0.0166,0.0167,0.0425,0.0435,0.0445,0.0494,0,0,0.0475,0.048,0,0,0,0,0,0,0,0,-0.0014,-0.0008,0.0029,0.0033,0.0039,0.0108,0.0161,0.023,0.0165,0.0123,0.0166,0.0167,0.0334,0.0352,0.0373,0.0507,0.0518,0.0476,0.0482,0.0486,0.0489,0,0,0,0,0,0,0,-0.0018,-0.0012,0.0031,0.0029,0.0035,0.0072,0.0081,0.0174,0.0231,0.0127,0.0132,0.0134,0.0339,0.0363,0.038,0.0522,0.0476,0.0485,0.0491,0.0495,0.08,0.0802,0,0,0,0,0,0,-0.0044,-0.0016,0.0028,0.0033,0.0007,0.0072,0.0082,0.0089,0.0227,0.0246,0.0133,0.0137,0.0346,0.0368,0.039,0.0503,0.0486,0.0496,0.0502,0.0798,0.0801,0.0803,0,0,0,0,0,0,-0.0045,-0.0041,0.0024,0.0007,0.0017,0.0072,0.008,0.0091,0.0121,0.0229,0.0252,0.0151,0.0347,0.0376,0.0501,0.0513,0.05,0.0509,0.0796,0.0799,0.0802,0.0701,0,0,0,0,0,0,-0.0047,-0.0042,-0.0038,0.0005,0.0017,0.0053,0.0079,0.0092,0.0118,0.0125,0.0252,0.0277,0.035,0.0486,0.0511,0.0526,0.0517,0.0793,0.0797,0.0801,0.0702,0.0701,0.0699,0,0,0,0,0,-0.0049,-0.0055,-0.0038,-0.0033,0.0018,0.0053,0.0063,0.0107,0.0118,0.0136,0.0236,0.0273,0.0529,0.0496,0.0525,0.0543,0.0791,0.0796,0.0801,0.0702,0.0701,0.0699,0,0,0,0,0,0,-0.0063,-0.0047,-0.0027,-0.0022,0.0015,0.0064,0.0069,0.0104,0.0191,0.0196,0.0306,0.0339,0.0447,0.0522,0.0483,0.0648,0.0664,0.0675,0.058,0.0579,0.0578,0.0522,0.0525,0,0,0,0,0,-0.007,-0.0076,-0.0038,-0.003,-0.0026,0.0022,0.0042,0.0071,0.0143,0.0179,0.0283,0.0393,0.0488,0.0553,0.0651,0.0747,0.0766,0.0781,0.0779,0.0777,0.0756,0.0795,0.0793,0.0819,0.0819,0.0819,0,0,-0.0069,-0.0065,-0.0062,-0.0035,-0.0014,-0.0001,0.0037,0.0053,0.0085,0.0198,0.0294,0.0391,0.0513,0.0617,0.0672,0.0683,0.0783,0.0784,0.078,0.076,0.0799,0.0796,0.0793,0.0822,0.0822,0.0821,0,0,-0.0106,-0.0076,-0.011,-0.0078,-0.0061,-0.0024,-0.0022,0.0042,0.0086,0.0196,0.027,0.0371,0.0553,0.062,0.0679,0.0735,0.0768,0.0781,0.0736,0.0774,0.077,0.0767,0.0775,0.0773,0.0787,0.0787,0.0787,0,-0.0105,-0.013,-0.0106,-0.0122,-0.0084,-0.0039,-0.003,0.0009,0.0123,0.0156,0.0223,0.0436,0.0545,0.0622,0.0658,0.0724,0.0745,0.072,0.0765,0.0762,0.0761,0.077,0.0769,0.0782,0.0783,0.0783,0.0784,0,-0.0176,-0.0168,-0.0183,-0.018,-0.0132,-0.0118,-0.0055,-0.0002,0.0076,0.012,0.0232,0.0383,0.0503,0.0561,0.0641,0.0684,0.07,0.0743,0.0745,0.075,0.0762,0.0762,0.0776,0.0778,0.0779,0.078,0,0,-0.0221,-0.0233,-0.0235,-0.0216,-0.0149,-0.0121,-0.0068,-0.0014,-0.001,0.0121,0.017,0.0337,0.0386,0.0457,0.0553,0.0605,0.063,0.0674,0.0678,0.064,0.069,0.0678,0.0678,0.0678,0.0679,0.0679,0.0695,0,-0.0272,-0.0329,-0.0288,-0.026,-0.0255,-0.0153,-0.0107,-0.0049,0.0021,0.0078,0.0183,0.0264,0.0348,0.0418,0.0474,0.0607,0.0631,0.062,0.0728,0.073,0.0684,0.0678,0.0661,0.0673,0.0696,0.0697,0.0697,0,-0.0356,-0.0361,-0.0389,-0.0293,-0.0281,-0.0244,-0.0151,-0.0097,-0.0041,0.0012,0.0074,0.0149,0.0247,0.0333,0.0474,0.0466,0.0559,0.0645,0.0648,0.0666,0.072,0.0682,0.0674,0.0699,0.0699,0.0698,0.0698,0,-0.0444,-0.0409,-0.0433,-0.0402,-0.0318,-0.0273,-0.0194,-0.0132,-0.0099,-0.0042,-0.0026,0.0069,0.0152,0.027,0.0438,0.047,0.0579,0.0648,0.0696,0.0695,0.0715,0.0716,0.0709,0.0709,0.0709,0.0709,0.0709,0,-0.0524,-0.0524,-0.048,-0.049,-0.0442,-0.0334,-0.0298,-0.0232,-0.0166,-0.0169,-0.0077,-0.0057,0.0146,0.0233,0.0386,0.0524,0.0527,0.0666,0.0697,0.0683,0.068,0.0741,0.0744,0.0709,0.0709,0.0709,0.0709,0,-0.0647,-0.0645,-0.0637,-0.055,-0.0506,-0.0466,-0.033,-0.0324,-0.0266,-0.0252,-0.0232,-0.0137,-0.0016,0.0138,0.0342,0.045,0.0595,0.0631,0.058,0.0605,0.0698,0.0697,0.0703,0.0703,0.0703,0.0703,0.0702,0,-0.0732,-0.0768,-0.0696,-0.0674,-0.0633,-0.0548,-0.05,-0.0383,-0.038,-0.0314,-0.0325,-0.0217,-0.0154,0.0095,0.0319,0.0522,0.0557,0.0606,0.0673,0.0666,0.0697,0.0696,0.0696,0.0662,0.0661,0.0661,0.066,0,-0.0834,-0.0837,-0.0827,-0.079,-0.0739,-0.0668,-0.0586,-0.0599,-0.0497,-0.0502,-0.0476,-0.041,-0.0171,0.0064,0.0319,0.0448,0.0582,0.0604,0.0613,0.0661,0.0627,0.0657,0.0658,0.0656,0.0657,0.0657,0.0657,0.0657,-0.0891,-0.0907,-0.0906,-0.0868,-0.0818,-0.0778,-0.0745,-0.0706,-0.069,-0.065,-0.0575,-0.0437,-0.0201,0.019,0.0359,0.0545,0.0575,0.0651,0.0652,0.0654,0.0642,0.0609,0.0631,0.0631,0.0631,0.0631,0.0632,0,-0.0918,-0.0951,-0.0953,-0.091,-0.0885,-0.0832,-0.0798,-0.078,-0.079,-0.0688,-0.0619,-0.036,-0.0089,0.0161,0.0453,0.0609,0.0623,0.0631,0.0634,0.0637,0.064,0.0627,0.0612,0.0613,0.0613,0.0613,0,0,-0.0933,-0.0968,-0.0985,-0.0966,-0.0941,-0.09,-0.0891,-0.0876,-0.0797,-0.0716,-0.0567,-0.0345,-0.0049,0.0155,0.0349,0.0494,0.0522,0.0501,0.0503,0.0485,0.0486,0.0639,0.0621,0,0,0,0,0]}],[{"header":{"parameterUnit":"m.s-1","parameterCategory":2,"la1":30.2991,"la2":30.254,"lo1":-89.0895,"lo2":-89.0444,"dy":0.0017,"dx":0.0017,"nx":28,"ny":28,"refTime":"2025-08-18T09:00:00:Z","depth":"4","parameterNumber":2,"parameterNumberName":"U-component_of_CURRENTS"},"data":[0,0,0,0,0,0,0,0,0,0,0,0,0,0,0,0,0,0,0,0,0,0,0,0,0,0,0,0,0,0,0,0,0,0,0,0,0,0,0,0,0,0,0,0,0,0,0,0,0,0,0,0,0,0,0,0,0,0,-0.1043,-0.1044,0,-0.1113,-0.1114,-0.1115,-0.1148,-0.1148,-0.1148,-0.1148,-0.1226,-0.1229,-0.1231,0,0,0,0,0,0,0,0,0,0,0,0,0,-0.0991,-0.0992,-0.1043,-0.1044,-0.1045,-0.1113,-0.1114,-0.1115,-0.1148,-0.1148,-0.1148,-0.1148,-0.1226,-0.1228,-0.1231,0,0,0,0,0,0,0,0,0,0,0,0,0,-0.1032,-0.0992,-0.1043,-0.107,-0.1073,-0.1113,-0.1114,-0.1115,-0.1148,-0.1148,-0.1148,-0.1148,-0.1225,-0.1228,-0.1231,-0.125,0,0,-0.1241,-0.1242,0,0,0,0,0,0,0,0,-0.103,-0.1034,-0.1065,-0.1068,-0.1072,-0.1122,-0.1125,-0.1161,-0.1148,-0.1119,-0.1148,-0.1148,-0.1193,-0.1199,-0.1211,-0.1254,-0.1258,-0.1241,-0.1243,-0.1244,-0.1245,0,0,0,0,0,0,0,-0.1027,-0.1032,-0.1071,-0.1066,-0.107,-0.1097,-0.1102,-0.1132,-0.1155,-0.1121,-0.1124,-0.1133,-0.1195,-0.1208,-0.1213,-0.1259,-0.1241,-0.1244,-0.1246,-0.1247,-0.1386,-0.1388,0,0,0,0,0,0,-0.1016,-0.1028,-0.1068,-0.1073,-0.1051,-0.1098,-0.1103,-0.1106,-0.1154,-0.1162,-0.1133,-0.1134,-0.1202,-0.1209,-0.1216,-0.1286,-0.1244,-0.1247,-0.1249,-0.1384,-0.1387,-0.1389,0,0,0,0,0,0,-0.1015,-0.1019,-0.1066,-0.1053,-0.1061,-0.1098,-0.1101,-0.1107,-0.1134,-0.1163,-0.117,-0.1154,-0.1203,-0.1211,-0.1267,-0.1288,-0.1249,-0.1251,-0.1382,-0.1385,-0.1388,-0.1398,0,0,0,0,0,0,-0.1013,-0.1018,-0.1022,-0.1052,-0.1061,-0.1097,-0.1101,-0.1108,-0.1138,-0.1141,-0.1184,-0.119,-0.1203,-0.1262,-0.127,-0.1291,-0.1254,-0.138,-0.1383,-0.1387,-0.1395,-0.1401,-0.1405,0,0,0,0,0,-0.1011,-0.1012,-0.1022,-0.1027,-0.1064,-0.1098,-0.1105,-0.1132,-0.1139,-0.1155,-0.1193,-0.1189,-0.1289,-0.1266,-0.1275,-0.1297,-0.1378,-0.1382,-0.1386,-0.1393,-0.14,-0.1405,0,0,0,0,0,0,-0.0998,-0.1017,-0.1028,-0.1037,-0.107,-0.1104,-0.1117,-0.114,-0.1181,-0.1188,-0.1214,-0.1224,-0.1281,-0.1294,-0.1268,-0.1351,-0.1333,-0.1339,-0.1335,-0.1341,-0.1346,-0.1351,-0.1257,0,0,0,0,0,-0.0995,-0.0996,-0.103,-0.1039,-0.1053,-0.1089,-0.1108,-0.1132,-0.1169,-0.1187,-0.1223,-0.1263,-0.1303,-0.1325,-0.1362,-0.1406,-0.1402,-0.1428,-0.1433,-0.1437,-0.145,-0.1456,-0.1461,-0.1402,-0.1402,-0.1402,0,0,-0.0996,-0.1003,-0.1007,-0.1036,-0.1058,-0.1092,-0.11,-0.1134,-0.1175,-0.119,-0.1257,-0.1285,-0.1321,-0.1373,-0.1399,-0.1386,-0.1453,-0.1442,-0.1445,-0.1456,-0.146,-0.1466,-0.1471,-0.1405,-0.1404,-0.1404,0,0,-0.0985,-0.1,-0.0997,-0.1033,-0.1071,-0.1098,-0.1111,-0.1162,-0.1195,-0.1263,-0.1283,-0.1329,-0.1393,-0.1421,-0.1442,-0.15,-0.1481,-0.151,-0.1535,-0.154,-0.1545,-0.1548,-0.1542,-0.1546,-0.1508,-0.1508,-0.1508,0,-0.0987,-0.0993,-0.1007,-0.1028,-0.1062,-0.1102,-0.1134,-0.1178,-0.1248,-0.1283,-0.1289,-0.1395,-0.1419,-0.1479,-0.1499,-0.151,-0.1503,-0.1502,-0.1544,-0.1547,-0.1551,-0.1544,-0.1547,-0.1509,-0.1509,-0.1509,-0.1509,0,-0.0974,-0.1006,-0.1011,-0.1049,-0.1086,-0.1123,-0.1185,-0.1236,-0.1282,-0.1328,-0.1409,-0.1449,-0.1509,-0.1521,-0.1529,-0.1573,-0.1557,-0.1547,-0.1519,-0.1557,-0.1548,-0.1551,-0.1511,-0.151,-0.151,-0.151,0,0,-0.0915,-0.0988,-0.0993,-0.1035,-0.1108,-0.1139,-0.1211,-0.1285,-0.1337,-0.1409,-0.1472,-0.1543,-0.1563,-0.159,-0.1602,-0.1609,-0.1622,-0.1589,-0.1589,-0.1567,-0.1623,-0.1529,-0.1523,-0.1608,-0.1609,-0.161,-0.1602,0,-0.0906,-0.0948,-0.0989,-0.1064,-0.1104,-0.1181,-0.1245,-0.1324,-0.1389,-0.1463,-0.1516,-0.158,-0.1589,-0.1613,-0.1627,-0.1628,-0.1633,-0.1625,-0.1605,-0.1605,-0.1502,-0.1524,-0.1613,-0.1604,-0.1605,-0.1605,-0.1606,0,-0.0871,-0.0918,-0.0975,-0.1092,-0.1114,-0.1171,-0.1279,-0.1345,-0.1453,-0.1503,-0.1575,-0.1616,-0.1668,-0.1654,-0.1682,-0.1673,-0.1657,-0.1647,-0.1646,-0.1559,-0.1516,-0.1564,-0.1611,-0.1611,-0.161,-0.161,-0.161,0,-0.0808,-0.0908,-0.0953,-0.0996,-0.1126,-0.118,-0.125,-0.136,-0.1416,-0.1527,-0.157,-0.1644,-0.1677,-0.1683,-0.1688,-0.168,-0.1693,-0.1675,-0.1578,-0.1571,-0.1651,-0.1648,-0.1685,-0.1685,-0.1685,-0.1685,-0.1685,0,-0.0772,-0.082,-0.0939,-0.0979,-0.105,-0.1156,-0.1236,-0.1319,-0.1427,-0.1488,-0.1585,-0.1628,-0.1684,-0.1706,-0.1696,-0.1648,-0.1702,-0.1588,-0.1564,-0.1656,-0.1654,-0.1652,-0.1649,-0.1684,-0.1684,-0.1684,-0.1685,0,-0.0687,-0.0764,-0.0839,-0.0982,-0.1023,-0.1076,-0.121,-0.1266,-0.1385,-0.1464,-0.1498,-0.1611,-0.1642,-0.1682,-0.1687,-0.1642,-0.1613,-0.1581,-0.1681,-0.1663,-0.1483,-0.1481,-0.1463,-0.146,-0.1457,-0.1455,-0.1453,0,-0.064,-0.0664,-0.0809,-0.0845,-0.0912,-0.1007,-0.1066,-0.1216,-0.1281,-0.1441,-0.1468,-0.1547,-0.1607,-0.1552,-0.1592,-0.1567,-0.155,-0.1522,-0.1503,-0.1482,-0.1462,-0.1464,-0.1465,-0.1448,-0.1447,-0.1447,-0.1446,0,-0.0545,-0.0597,-0.0657,-0.0735,-0.0808,-0.0899,-0.101,-0.1054,-0.123,-0.1328,-0.1409,-0.1441,-0.1474,-0.1489,-0.1483,-0.1464,-0.1534,-0.1492,-0.1497,-0.148,-0.1464,-0.1447,-0.1452,-0.1436,-0.1437,-0.1438,-0.1439,0,-0.0465,-0.0459,-0.0529,-0.0607,-0.0682,-0.078,-0.0874,-0.098,-0.1069,-0.1272,-0.128,-0.1381,-0.1463,-0.1433,-0.1427,-0.1406,-0.1379,-0.133,-0.1343,-0.1354,-0.1322,-0.1286,-0.1185,0,0,0,0,0,-0.0389,-0.0364,-0.0393,-0.0495,-0.0582,-0.066,-0.0817,-0.0929,-0.1101,-0.1124,-0.1214,-0.1249,-0.1271,-0.1312,-0.1264,-0.1353,-0.1368,-0.1289,-0.1314,-0.1381,-0.1393,-0.1364,0,0,0,0,0,0,-0.0322,-0.0324,-0.0339,-0.0387,-0.0452,-0.0567,-0.0686,-0.0835,-0.0879,-0.1037,-0.1056,-0.1149,-0.1182,-0.1267,-0.1226,-0.1235,-0.1222,-0.1342,-0.1338,-0.1375,-0.1385,-0.1394,-0.1369,0,0,0,0,0]},{"header":{"parameterUnit":"m.s-1","parameterCategory":2,"la1":30.2991,"la2":30.254,"lo1":-89.0895,"lo2":-89.0444,"dy":0.0017,"dx":0.0017,"nx":28,"ny":28,"refTime":"2025-08-18T09:00:00:Z","depth":"4","parameterNumber":3,"parameterNumberName":"V-component_of_CURRENTS"},"data":[0,0,0,0,0,0,0,0,0,0,0,0,0,0,0,0,0,0,0,0,0,0,0,0,0,0,0,0,0,0,0,0,0,0,0,0,0,0,0,0,0,0,0,0,0,0,0,0,0,0,0,0,0,0,0,0,0,0,-0.0087,-0.0087,0,-0.009,-0.009,-0.009,-0.0061,-0.006,-0.0059,-0.0059,0.0013,0.0015,0.0016,0,0,0,0,0,0,0,0,0,0,0,0,0,-0.0045,-0.0046,-0.0087,-0.0087,-0.0087,-0.009,-0.009,-0.009,-0.0061,-0.006,-0.0059,-0.0059,0.0013,0.0015,0.0016,0,0,0,0,0,0,0,0,0,0,0,0,0,-0.0055,-0.0046,-0.0087,-0.0074,-0.0073,-0.009,-0.009,-0.009,-0.0061,-0.006,-0.0059,-0.0058,0.0012,0.0014,0.0016,0.001,0,0,0.0022,0.0023,0,0,0,0,0,0,0,0,-0.0055,-0.0057,-0.0076,-0.0075,-0.0074,-0.0076,-0.0049,-0.0053,-0.0061,-0.0064,-0.0059,-0.0058,-0.0011,-0.0007,-0.0008,0.0013,0.0016,0.0023,0.0024,0.0025,0.0025,0,0,0,0,0,0,0,-0.0054,-0.0056,-0.0086,-0.0076,-0.0075,-0.0065,-0.0066,-0.005,-0.004,-0.0063,-0.0062,-0.0066,-0.001,-0.0011,-0.0006,0.0017,0.0023,0.0024,0.0026,0.0026,0.0053,0.0052,0,0,0,0,0,0,-0.0059,-0.0056,-0.0086,-0.0086,-0.0064,-0.0067,-0.0067,-0.0075,-0.0042,-0.0037,-0.0066,-0.0064,-0.0014,-0.0009,-0.0004,-0.0001,0.0025,0.0027,0.0028,0.0053,0.0053,0.0052,0,0,0,0,0,0,-0.0059,-0.0062,-0.0086,-0.0072,-0.0075,-0.0069,-0.0077,-0.0075,-0.0071,-0.0045,-0.0038,-0.0064,-0.0013,-0.0006,0.0008,0.0002,0.0027,0.0029,0.0054,0.0053,0.0053,-0.0,0,0,0,0,0,0,-0.0057,-0.0062,-0.0067,-0.0073,-0.0076,-0.0103,-0.0078,-0.0076,-0.0076,-0.0073,-0.0041,-0.0034,-0.0012,0.0004,0.001,0.0006,0.0031,0.0055,0.0054,0.0053,0.0002,-0.0003,-0.0007,0,0,0,0,0,-0.0056,-0.0074,-0.0067,-0.0071,-0.0084,-0.0105,-0.0105,-0.0096,-0.0077,-0.0086,-0.006,-0.0034,0.0003,0.0005,0.0012,0.0008,0.0055,0.0054,0.0053,0.0004,-0.0002,-0.0007,0,0,0,0,0,0,-0.0054,-0.0073,-0.0066,-0.0086,-0.0096,-0.01,-0.011,-0.0099,-0.0087,-0.0077,-0.0043,-0.0035,-0.0026,-0.0003,-0.0001,0.0013,0.0034,0.0034,-0.0005,-0.001,-0.0015,-0.0005,0.0032,0,0,0,0,0,-0.0058,-0.0078,-0.0088,-0.0104,-0.0112,-0.0108,-0.0113,-0.0108,-0.01,-0.0094,-0.0072,-0.0046,-0.0028,-0.0014,0.0001,0.0008,0.0055,0.0011,0.0007,0.0003,0.0014,0.0073,0.0075,0.0049,0.0049,0.0049,0,0,-0.0059,-0.0075,-0.0083,-0.0106,-0.0111,-0.0131,-0.0109,-0.0123,-0.0129,-0.0087,-0.0086,-0.0064,-0.0031,-0.0026,-0.0018,-0.0004,0.0033,0.0001,-0.0002,0.0012,0.0072,0.0075,0.0077,0.0048,0.0048,0.0048,0,0,-0.0089,-0.0089,-0.0121,-0.0133,-0.0151,-0.0149,-0.0153,-0.0159,-0.015,-0.015,-0.0119,-0.0097,-0.0077,-0.0051,-0.0035,-0.0053,0.0003,-0.0052,-0.0061,-0.0006,-0.0002,0.0001,0.0059,0.0068,-0.0049,-0.0049,-0.005,0,-0.0087,-0.0129,-0.0132,-0.0166,-0.0178,-0.0158,-0.0187,-0.018,-0.0176,-0.0163,-0.0156,-0.0108,-0.0087,-0.0058,-0.0067,-0.0061,-0.0018,-0.0045,-0.001,-0.0006,-0.0001,0.0058,0.0068,-0.0052,-0.0052,-0.0052,-0.0051,0,-0.0148,-0.0172,-0.0193,-0.0226,-0.0236,-0.0259,-0.0253,-0.0249,-0.0231,-0.0212,-0.0184,-0.0152,-0.0115,-0.0113,-0.0096,-0.0058,-0.0034,-0.0027,0.0005,-0.0002,0.0061,0.0073,-0.0056,-0.0055,-0.0054,-0.0054,0,0,-0.0157,-0.0223,-0.0228,-0.0251,-0.0269,-0.0285,-0.0289,-0.0284,-0.0269,-0.0248,-0.0223,-0.0193,-0.0155,-0.0133,-0.0104,-0.0058,-0.0,-0.0032,-0.0028,0.0029,0.0131,0.009,0.01,0.0015,0.0017,0.0018,0.0161,0,-0.0199,-0.0281,-0.0294,-0.0341,-0.0376,-0.0356,-0.0361,-0.0344,-0.0311,-0.028,-0.0222,-0.0192,-0.0168,-0.0148,-0.0098,-0.0022,0.003,-0.0039,0.0127,0.0133,0.0099,0.0111,0.0024,0.017,0.0173,0.0175,0.0177,0,-0.0251,-0.0298,-0.0371,-0.0403,-0.0413,-0.043,-0.0416,-0.0416,-0.0356,-0.0327,-0.0267,-0.0215,-0.014,-0.0127,0.0021,-0.0022,0.0052,0.011,0.0117,0.011,0.0114,0.018,0.0199,0.0197,0.0196,0.0194,0.0193,0,-0.0271,-0.034,-0.0401,-0.0417,-0.0455,-0.0465,-0.0467,-0.0428,-0.0417,-0.0345,-0.0314,-0.0215,-0.016,-0.0052,0.0062,0.0053,0.0224,0.023,0.0267,0.0266,0.0285,0.028,0.0336,0.0336,0.0335,0.0335,0.0335,0,-0.031,-0.0349,-0.0419,-0.045,-0.0496,-0.05,-0.0511,-0.0491,-0.0449,-0.0419,-0.0335,-0.0284,-0.0138,-0.0029,0.0074,0.0206,0.0241,0.0278,0.0301,0.0258,0.0248,0.0294,0.0287,0.034,0.0339,0.0338,0.0337,0,-0.0319,-0.0372,-0.044,-0.0498,-0.0514,-0.0543,-0.0556,-0.0548,-0.0505,-0.0461,-0.0439,-0.0315,-0.017,-0.0032,0.0151,0.0217,0.0345,0.0378,0.0326,0.0342,0.0355,0.0344,0.046,0.0459,0.0459,0.0459,0.0459,0,-0.0336,-0.038,-0.0473,-0.0517,-0.0546,-0.0584,-0.0601,-0.0581,-0.0562,-0.0477,-0.0449,-0.0314,-0.022,0.0017,0.0152,0.0349,0.0358,0.0429,0.0391,0.0357,0.0369,0.0358,0.0348,0.0459,0.0459,0.0459,0.0458,0,-0.0352,-0.0392,-0.0449,-0.0541,-0.0587,-0.0625,-0.064,-0.0636,-0.0591,-0.0555,-0.0446,-0.0321,-0.0163,0.0012,0.0152,0.0289,0.0388,0.0428,0.0429,0.0394,0.0358,0.0367,0.0357,0.0458,0.0458,0.0458,0.0458,0,-0.0353,-0.0391,-0.0473,-0.0548,-0.061,-0.064,-0.0657,-0.0629,-0.0609,-0.0516,-0.048,-0.0312,-0.0208,-0.0018,0.0116,0.0238,0.0272,0.0306,0.0315,0.0317,0.0213,0.0142,0.0207,0,0,0,0,0,-0.0348,-0.0388,-0.0465,-0.055,-0.0616,-0.0645,-0.0663,-0.0666,-0.0628,-0.0559,-0.052,-0.0377,-0.0165,-0.0065,0.0053,0.0107,0.0286,0.0248,0.0327,0.0454,0.0455,0.035,0,0,0,0,0,0,-0.0345,-0.0411,-0.0453,-0.0533,-0.0587,-0.064,-0.0654,-0.0641,-0.0598,-0.0549,-0.0436,-0.0361,-0.0157,-0.0233,0.0053,0.0092,0.0154,0.0353,0.0355,0.0453,0.0454,0.0455,0.0348,0,0,0,0,0]}]]